Volver al catálogo

STARLINK-30617

ActivoComunicacionesVLEO
NORAD 58104·PAYLOAD·🇺🇸 United States

Lanzado Oct 21, 2023 desde Vandenberg Space Force Base

Loading…

Próximos Pases (próximas 24 horas)

TLE

ActualizadoSource: CelesTrak SupGP

Época: Sep 14, 2026, 20:44 UTC

1 58104C 23161H   26257.86437500  .00010661  00000+0  31505-3 0  2573
2 58104  53.1604   4.1781 0001197  70.1220 153.5721 15.34378619    12

Sigue STARLINK-30617 en tiempo real con AllMySat

Download on the App Store